Location: eljas
(40.1958°N, 6.8661°W)
Time: 10:14:42
(UTC+02:00)

Daily predictions for brighter satellites

Satellite Brightness Start Highest point End
(mag) Time Altitude Azimuth Time Altitude Azimuth Time Altitude Azimuth
Cosmos 1821 Rocket 3.9 21:23:40 10° S 21:29:44 71° E 21:35:47 10° NNE
Helios 1B rocket 2.7 21:26:18 10° N 21:30:27 77° WNW 21:34:32 10° SSW
H-2A R/B 3.6 21:27:44 10° SE 21:31:12 32° ENE 21:34:44 10° N
FENGYUN 3A 4.0 21:27:12 10° SE 21:32:18 47° ENE 21:37:25 10° N
FengYun 1-2 T 4.3 21:27:17 10° SSE 21:32:53 72° ENE 21:38:29 10° N
Cosmos 1605 Rocket 4.4 21:26:59 10° SSE 21:32:54 43° E 21:38:45 10° NNE
Cosmos 1656 4.5 21:30:12 10° SSE 21:34:56 28° ESE 21:39:38 10° NE
Lacrosse 5 rocket 1.8 21:31:31 10° NNW 21:35:03 37° NE 21:38:27 10° ESE
EP 1 4.2 21:33:22 10° SSW 21:35:57 60° ESE 21:38:32 10° NE
Cosmos 1315 Rocket 4.1 21:32:55 10° SSW 21:36:47 46° WNW 21:40:43 10° N
NOSS 2-1 (E) 4.3 21:33:05 10° SW 21:36:56 55° NW 21:41:21 10° NNE
Okean 2 3.4 21:32:58 10° N 21:37:08 65° E 21:41:15 10° SSE
Cosmos 2227 Rocket 2.4 21:32:17 10° NNW 21:37:52 55° ENE 21:43:23 10° SE
Meteor 2-21 Rocket 4.5 21:32:25 10° S 21:38:38 83° E 21:44:49 10° N
CZ-4B DEB 2.8 21:38:13 10° SSE 21:41:28 69° ENE 21:44:45 10° N
USA 186 2.1 21:45:57 10° SE 21:48:54 39° ENE 21:51:40 10° N
Meteor 2-15 4.4 21:43:47 10° N 21:49:53 84° E 21:55:56 10° S
CZ-2D R/B 3.3 21:47:24 10° SSE 21:51:13 63° ENE 21:55:04 10° N
Meteor 1-5 Rocket 4.1 21:46:47 10° S 21:52:06 90° ESE 21:57:37 10° N
ERS-1 Rocket 4.0 21:48:11 10° ESE 21:52:22 27° ENE 21:56:33 10° N
Cosmos 2082 3.7 21:47:10 10° NNW 21:52:47 68° ENE 21:58:22 10° SSE
Cosmos 2297 Rocket 2.5 21:47:38 10° NNW 21:53:10 52° ENE 21:58:40 10° SE
Helios 1A 4.3 21:49:58 10° S 21:53:55 43° W 21:57:56 10° NNW
DELTA 2 R/B (1) 3.6 21:48:52 10° W 21:54:27 78° S 21:59:23 13° ESE
Lacrosse 5 3.1 21:50:50 10° NNW 21:55:16 29° NNE 21:59:17 12° E
Meteor 2-15 Rocket 4.4 21:49:51 10° N 21:55:57 80° E 22:02:01 10° S
OTV 4 1.5 21:54:42 10° W 21:57:26 34° SSW 21:59:26 15° SE
Cosmos 2123 Rocket 4.0 21:56:51 10° N 22:03:03 86° E 22:09:14 10° S
Cosmos 1898 Rocket 4.2 21:58:11 10° N 22:03:05 36° ENE 22:06:52 15° SE
Cosmos 1939 Rocket 4.2 22:02:08 16° ESE 22:04:25 24° ENE 22:07:47 10° NNE
Cosmos 1500 4.0 22:01:55 10° SSE 22:05:14 30° E 22:08:34 10° NNE
Cosmos 1461 2.9 22:02:40 10° NW 22:06:43 72° WSW 22:10:26 11° SSE
Tiangong 1 1.7 22:06:21 10° WNW 22:09:24 50° N 22:11:30 17° ENE
Cosmos 1346 Rocket 3.4 22:06:52 10° NNW 22:10:45 58° W 22:14:40 10° S
H-2A R/B 3.5 22:12:12 17° E 22:13:29 20° ENE 22:16:29 10° NNE
Cosmos 1340 4.4 22:14:24 10° NNE 22:16:55 17° ENE 22:17:12 17° ENE
Cosmos 1626 Rocket 3.5 22:12:50 10° N 22:17:15 74° E 22:21:35 10° SSE
Cosmos 468 Rocket 4.1 22:13:38 10° S 22:18:31 48° ESE 22:23:26 10° NNE
NOSS 3-4 (A) 4.4 22:12:34 10° NW 22:19:29 58° WSW 22:26:47 10° SSE
NOSS 3-4 (C) 4.4 22:12:42 10° NW 22:19:37 59° WSW 22:26:55 10° SSE
Cosmos 1455 Rocket 4.2 22:16:52 10° SSW 22:21:02 46° WNW 22:25:15 10° N
EO 1 Delta rocket 4.3 22:16:45 10° N 22:21:26 73° W 22:26:52 10° SSW
Cosmos 1602 Rocket 3.6 22:22:00 10° N 22:26:28 87° W 22:30:53 10° S
SJ-11-01 4.3 22:24:39 18° SSE 22:28:05 63° ENE 22:32:43 10° N
Cosmos 1066 Rocket 4.3 22:22:34 10° N 22:28:10 58° ENE 22:32:22 18° SSE
Cosmos 1814 Rocket 4.2 22:23:35 10° S 22:28:43 51° ESE 22:33:52 10° NNE
Cosmos 1515 3.6 22:25:16 10° N 22:29:07 72° E 22:31:29 22° SSE
Cosmos 1697 Rocket 2.7 22:23:45 10° S 22:29:18 62° ESE 22:34:52 10° NNE
SL-24 R/B - RUBIN 2 4.4 22:23:33 10° SSW 22:29:22 89° ESE 22:35:53 10° NNE
deb Chang Zheng 4 4.4 22:26:12 10° NE 22:30:09 30° E 22:31:00 28° ESE
RESURS DK-1 3.1 22:27:34 10° N 22:31:26 36° ENE 22:32:39 30° E
Cosmos 1153 Rocket 4.4 22:25:53 10° S 22:32:05 87° E 22:38:15 10° N
Cosmos 2084 3.4 22:28:16 10° NNW 22:32:19 65° NE 22:34:06 32° SE
Cosmos 220 Rocket 4.2 22:34:41 10° NNW 22:38:53 65° WSW 22:41:42 20° S
OAO 2 Rocket 3.7 22:34:58 10° WSW 22:39:48 47° S 22:41:35 33° SE
Cosmos 1743 2.9 22:41:19 41° SE 22:42:06 48° E 22:45:53 10° NNE
CZ-4 DEB 2.9 22:44:36 40° S 22:45:35 70° W 22:48:44 10° NNW
Cosmos 858 Rocket 4.4 22:41:14 10° NNW 22:46:33 80° ENE 22:49:14 30° SSE
Cosmos 1802 Rocket 4.1 22:41:45 14° SSE 22:47:15 57° E 22:53:33 10° NNE
ARGOS 4.2 22:48:57 25° E 22:49:49 26° ENE 22:54:12 10° N
Cosmos 1980 Rocket 2.2 22:46:43 10° S 22:52:15 58° ESE 22:57:50 10° NNE
Cosmos 2058 Rocket 4.2 22:53:16 28° ENE 22:53:16 28° ENE 22:56:17 10° NNE
ALOS 4.3 22:48:43 10° SSW 22:52:35 26° W 22:56:29 10° NW
ASTEX 1 3.8 22:48:53 10° NNE 22:53:36 41° E 22:54:07 40° ESE
BREEZE-M TANK 2.9 22:45:35 10° WNW 22:55:38 83° NNE 22:56:48 46° ESE
Cosmos 2298 Rocket 4.3 22:54:12 10° NNW 22:59:28 65° WSW 23:02:30 25° S
Cosmos 1606 Rocket 3.6 22:59:05 54° ESE 22:59:31 57° E 23:03:53 10° NNE
Cosmos 2016 Rocket 3.9 22:57:28 27° SSE 23:00:45 61° E 23:06:51 10° NNE
Envisat 2.9 22:59:48 33° S 23:02:11 86° WSW 23:07:17 10° NNW
MetOp-B 4.3 23:03:33 45° ESE 23:04:46 55° ENE 23:10:00 10° N
Cosmos 1937 Rocket 3.5 23:01:32 10° NNW 23:06:50 85° WSW 23:08:41 42° SSE
Cosmos 1842 4.4 23:06:25 10° N 23:09:01 32° NE 23:09:01 32° NE
Cosmos 2173 Rocket 4.1 23:06:51 10° S 23:13:14 79° W 23:19:35 10° N
Lacrosse 5 rocket 3.0 23:11:16 10° WNW 23:14:01 20° WSW 23:14:27 20° SW
H-2A R/B 3.5 23:15:55 21° NE 23:15:55 21° NE 23:18:57 10° NNE
Cosmos 990 Rocket 3.9 23:14:24 10° NNW 23:19:41 89° WSW 23:20:40 60° SSE
Cosmos 2263 Rocket 3.7 23:16:02 10° N 23:20:10 21° NE 23:20:25 21° ENE
Cosmos 2227 Rocket 4.4 23:17:26 10° NW 23:21:25 20° W 23:25:24 10° SW
Cosmos 1726 Rocket 3.4 23:23:12 84° N 23:23:12 84° N 23:27:29 10° N
Cosmos 2322 Rocket 3.4 23:27:23 27° ENE 23:27:23 27° ENE 23:30:09 10° NE
Meteor 1-21 4.3 23:21:22 10° NNW 23:27:09 80° W 23:28:51 48° S
Cosmos 967 Rocket 4.4 23:21:56 10° NNW 23:28:19 82° ENE 23:29:34 60° SE
Cosmos 1864 Rocket 4.3 23:27:54 59° SE 23:28:47 66° E 23:34:51 10° NNE
Cosmos 1666 4.2 23:31:32 29° N 23:31:32 29° N 23:33:32 10° N
Cosmos 2098 Rocket 3.9 23:27:14 41° S 23:29:50 78° E 23:35:46 10° N
ERS-1 Rocket 4.3 23:28:06 19° SSW 23:30:59 34° W 23:35:33 10° NNW
SPOT 1/Viking Rocket 3.5 23:34:10 69° ENE 23:34:10 69° ENE 23:39:19 10° N
Cosmos 2360 4.1 23:33:17 34° SSW 23:35:54 88° WNW 23:41:40 10° NNE
Tsikada Rocket 3.9 23:29:34 10° N 23:36:01 71° E 23:36:50 63° SE
Meteor 2-9 Rocket 4.0 23:36:04 78° SE 23:36:21 81° E 23:41:47 10° NNE
Cosmos 2297 Rocket 4.3 23:32:39 10° NW 23:36:46 21° W 23:40:39 11° SW
Cosmos 1825 Rocket 4.5 23:33:25 10° NNW 23:37:37 43° W 23:38:13 40° WSW
SL-08 RB Rocket 4.4 23:39:14 45° NNE 23:39:14 45° NNE 23:42:46 10° N
Lacrosse 5 2.2 23:33:32 10° NW 23:38:28 56° SW 23:38:28 56° SW
DELTA 2 R/B (1) 4.4 23:35:28 10° W 23:40:09 38° SW 23:40:09 38° SW
SPOT 5 3.4 23:42:01 52° SW 23:42:38 56° W 23:47:24 10° NNW
USA 215 3.9 23:41:12 36° ENE 23:43:04 45° NNE 23:49:12 10° NW
Cosmos 2227 4.1 23:37:58 10° NNW 23:43:44 77° WSW 23:44:11 72° SSW
Cosmos 1763 Rocket 4.0 23:42:09 27° SW 23:44:45 56° WNW 23:49:46 10° N
Tiangong 1 4.1 23:42:54 10° WNW 23:43:28 14° WNW 23:43:28 14° WNW
Cosmos 1953 Rocket 4.4 23:43:32 10° NNW 23:47:44 46° W 23:47:44 46° W
H-2A R/B 3.4 23:49:21 32° W 23:49:21 32° W 23:53:01 10° NNW
USA 245 4.4 23:49:30 67° SSW 23:50:22 80° WSW 23:56:45 10° NNW
Cosmos 1125 Rocket 3.8 23:46:18 10° NNW 23:50:44 61° NNE 23:50:44 61° NNE
